Escanaba, MI

5:32 AM EST on November 18, 2017 (GMT -0500)
Delta County

Weather History for KESC - September, 2014

Change the Weather History Date:

Tuesday, September 9, 2014

  Actual Average Record
Temperature  
Mean Temperature 66 °F -  
Max Temperature 73 °F 68 °F 82 °F (1961)
Min Temperature 60 °F 52 °F 36 °F (1975)
Cooling Degree Days 2    
Growing Degree Days 16 (Base 50)    
Moisture  
Dew Point 59 °F    
Average Humidity 78    
Maximum Humidity 88    
Minimum Humidity 60    
Precipitation  
Precipitation 0.00 in - - ()
Sea Level Pressure  
Sea Level Pressure 29.94 in    
Wind  
Wind Speed 7 mph (South)    
Max Wind Speed 13 mph    
Max Gust Speed -    
Visibility 10 miles    
Events      
Averages and records for this station are not official NWS values.
T = Trace of Precipitation, MM = Missing Value Source: NWS Daily Summary

Daily Weather History Graph

Daily Weather History Graph

Search for Another Location

Airport or City:

Trip Planner

Search our weather history database for the weather conditions in past years. The results will help you decide how hot, cold, wet, or windy it might be!

Date:

Astronomy

Sep. 09, 2014 Rise Set
Actual Time 7:19 AM EDT 8:11 PM EDT
Civil Twilight 6:49 AM EDT 8:41 PM EDT
Nautical Twilight 6:13 AM EDT 9:17 PM EDT
Astronomical Twilight 5:35 AM EDT 9:54 PM EDT
Moon 8:25 PM EDT (9/9) 7:59 AM EDT (9/9)
Length of Visible Light 13h 52m
Length of Day
12h 51m
Waxing Gibbous, 99% of the Moon is Illuminated
Sep 9
Waxing Gibbous
Sep 15
Last Quarter
Sep 24
New
Oct 1
First Quarter
Oct 8
Full

Hourly Weather History & Observations

Time (EDT) Temp. Dew Point Humidity Pressure Visibility Wind Dir Wind Speed Gust Speed Precip Events Conditions
12:15 AM 64.4 °F 57.2 °F 77% 29.98 in 10.0 mi SSW 10.4 mph - N/A   Mostly Cloudy
12:35 AM 64.4 °F 57.2 °F 77% 29.99 in 10.0 mi SSW 10.4 mph - N/A   Overcast
12:55 AM 64.4 °F 57.2 °F 77% 29.98 in 10.0 mi SSW 9.2 mph - N/A   Mostly Cloudy
1:15 AM 64.4 °F 57.2 °F 77% 29.98 in 10.0 mi SSW 8.1 mph - N/A   Partly Cloudy
1:35 AM 64.4 °F 57.2 °F 77% 29.97 in 10.0 mi South 5.8 mph - N/A   Partly Cloudy
1:55 AM 62.6 °F 57.2 °F 82% 29.97 in 10.0 mi South 5.8 mph - N/A   Scattered Clouds
2:15 AM 62.6 °F 57.2 °F 82% 29.97 in 10.0 mi South 5.8 mph - N/A   Mostly Cloudy
2:35 AM 62.6 °F 57.2 °F 82% 29.97 in 10.0 mi SSW 5.8 mph - N/A   Scattered Clouds
2:55 AM 62.6 °F 57.2 °F 82% 29.97 in 10.0 mi South 5.8 mph - N/A   Partly Cloudy
3:15 AM 62.6 °F 57.2 °F 82% 29.96 in 10.0 mi South 5.8 mph - N/A   Mostly Cloudy
3:35 AM 62.6 °F 57.2 °F 82% 29.96 in 10.0 mi SSW 4.6 mph - N/A   Mostly Cloudy
3:55 AM 62.6 °F 57.2 °F 82% 29.96 in 10.0 mi South 3.5 mph - N/A   Overcast
4:15 AM 62.6 °F 57.2 °F 82% 29.95 in 10.0 mi South 4.6 mph - N/A   Mostly Cloudy
4:35 AM 62.6 °F 57.2 °F 82% 29.95 in 10.0 mi South 5.8 mph - N/A   Partly Cloudy
4:55 AM 64.4 °F 57.2 °F 77% 29.95 in 10.0 mi South 5.8 mph - N/A   Mostly Cloudy
5:15 AM 64.4 °F 57.2 °F 77% 29.95 in 10.0 mi South 5.8 mph - N/A   Partly Cloudy
5:35 AM 62.6 °F 57.2 °F 82% 29.94 in 10.0 mi South 5.8 mph - N/A   Clear
5:55 AM 62.6 °F 57.2 °F 82% 29.94 in 10.0 mi South 4.6 mph - N/A   Clear
6:15 AM 62.6 °F 57.2 °F 82% 29.95 in 10.0 mi SSW 4.6 mph - N/A   Clear
6:35 AM 62.6 °F 57.2 °F 82% 29.95 in 10.0 mi SSW 4.6 mph - N/A   Clear
6:55 AM 62.6 °F 57.2 °F 82% 29.95 in 10.0 mi SSW 4.6 mph - N/A   Mostly Cloudy
7:15 AM 62.6 °F 57.2 °F 82% 29.96 in 10.0 mi SSW 3.5 mph - N/A   Mostly Cloudy
7:35 AM 60.8 °F 57.2 °F 88% 29.96 in 3.0 mi Calm Calm - N/A   Partly Cloudy
7:55 AM 60.8 °F 57.2 °F 88% 29.97 in 1.2 mi Calm Calm - N/A   Clear
8:15 AM 60.8 °F 55.4 °F 82% 29.97 in 6.0 mi Calm Calm - N/A   Clear
8:35 AM 62.6 °F 59.0 °F 88% 29.97 in 7.0 mi Calm Calm - N/A   Mostly Cloudy
8:55 AM 64.4 °F 60.8 °F 88% 29.97 in 10.0 mi SSW 6.9 mph - N/A   Overcast
9:15 AM 66.2 °F 57.2 °F 73% 29.96 in 10.0 mi SSW 10.4 mph - N/A   Overcast
9:35 AM 66.2 °F 57.2 °F 73% 29.96 in 10.0 mi SW 5.8 mph - N/A   Overcast
9:55 AM 66.2 °F 57.2 °F 73% 29.96 in 10.0 mi SSW 5.8 mph - N/A   Overcast
10:15 AM 66.2 °F 57.2 °F 73% 29.96 in 10.0 mi SSW 6.9 mph - N/A   Overcast
10:55 AM 66.2 °F 60.8 °F 83% 29.97 in 10.0 mi South 6.9 mph - N/A   Overcast
11:15 AM 66.2 °F 60.8 °F 83% 29.97 in 10.0 mi South 5.8 mph - N/A   Overcast
11:35 AM 68.0 °F 60.8 °F 78% 29.97 in 10.0 mi SSW 10.4 mph - N/A   Overcast
11:55 AM 69.8 °F 60.8 °F 73% 29.97 in 10.0 mi South 9.2 mph - N/A   Overcast
12:15 PM 69.8 °F 60.8 °F 73% 29.97 in 10.0 mi SSW 12.7 mph - N/A   Partly Cloudy
12:35 PM 69.8 °F 59.0 °F 68% 29.97 in 10.0 mi SSW 10.4 mph - N/A   Clear
12:55 PM 71.6 °F 57.2 °F 60% 29.96 in 10.0 mi South 9.2 mph - N/A   Partly Cloudy
1:15 PM 71.6 °F 57.2 °F 60% 29.96 in 10.0 mi South 8.1 mph - N/A   Scattered Clouds
1:35 PM 71.6 °F 57.2 °F 60% 29.95 in 10.0 mi SSE 8.1 mph - N/A   Scattered Clouds
1:55 PM 71.6 °F 57.2 °F 60% 29.94 in 10.0 mi South 10.4 mph - N/A   Clear
2:15 PM 71.6 °F 60.8 °F 69% 29.94 in 10.0 mi SSE 10.4 mph - N/A   Clear
2:35 PM 71.6 °F 60.8 °F 69% 29.93 in 10.0 mi SSE 9.2 mph - N/A   Clear
3:35 PM 73.4 °F 60.8 °F 65% 29.93 in 10.0 mi South 6.9 mph - N/A   Clear
3:55 PM 73.4 °F 60.8 °F 65% 29.92 in 10.0 mi SSE 9.2 mph - N/A   Clear
4:15 PM 71.6 °F 60.8 °F 69% 29.92 in 10.0 mi SSE 10.4 mph - N/A   Partly Cloudy
4:35 PM 69.8 °F 62.6 °F 78% 29.91 in 10.0 mi SSE 10.4 mph - N/A   Clear
5:15 PM 71.6 °F 62.6 °F 73% 29.90 in 10.0 mi SSE 9.2 mph - N/A   Clear
5:35 PM 71.6 °F 62.6 °F 73% 29.90 in 10.0 mi SSE 12.7 mph - N/A   Clear
5:55 PM 69.8 °F 62.6 °F 78% 29.90 in 10.0 mi SSE 11.5 mph - N/A   Scattered Clouds
6:15 PM 69.8 °F 62.6 °F 78% 29.91 in 10.0 mi SSE 8.1 mph - N/A   Overcast
6:35 PM 69.8 °F 62.6 °F 78% 29.91 in 10.0 mi South 6.9 mph - N/A   Overcast
6:55 PM 69.8 °F 62.6 °F 78% 29.91 in 10.0 mi South 6.9 mph - N/A   Overcast
7:15 PM 69.8 °F 62.6 °F 78% 29.91 in 10.0 mi South 5.8 mph - N/A   Overcast
7:35 PM 69.8 °F 60.8 °F 73% 29.91 in 10.0 mi South 5.8 mph - N/A   Mostly Cloudy
7:55 PM 69.8 °F 60.8 °F 73% 29.90 in 10.0 mi South 4.6 mph - N/A   Overcast
8:15 PM 68.0 °F 60.8 °F 78% 29.91 in 10.0 mi SSW 4.6 mph - N/A   Overcast
8:35 PM 68.0 °F 62.6 °F 83% 29.89 in 10.0 mi SE 4.6 mph - N/A   Mostly Cloudy
9:15 PM 66.2 °F 60.8 °F 83% 29.90 in 9.0 mi SE 4.6 mph - N/A   Clear
9:35 PM 66.2 °F 60.8 °F 83% 29.89 in 10.0 mi SSE 3.5 mph - N/A   Clear
9:55 PM 66.2 °F 59.0 °F 78% 29.89 in 10.0 mi Calm Calm - N/A   Clear
10:15 PM 66.2 °F 59.0 °F 78% 29.89 in 10.0 mi Calm Calm - N/A   Clear
10:35 PM 64.4 °F 59.0 °F 83% 29.90 in 10.0 mi SSE 3.5 mph - N/A   Clear
10:55 PM 64.4 °F 60.8 °F 88% 29.89 in 10.0 mi Calm Calm - N/A   Clear
11:15 PM 64.4 °F 60.8 °F 88% 29.89 in 10.0 mi South 3.5 mph - N/A   Partly Cloudy
11:35 PM 64.4 °F 60.8 °F 88% 29.89 in 10.0 mi South 4.6 mph - N/A   Mostly Cloudy
11:55 PM 66.2 °F 60.8 °F 83% 29.88 in 10.0 mi SSE 4.6 mph - N/A   Scattered Clouds